User: anonymous   Login
Location: Grasslands National Park East Block
(49.0708°N, 106.5295°W)
Time: 02:54:57
(UTC-06:00)
Language:

Explorer 7 - Orbit

View from above orbital plane
View from above orbital plane
View from above satellite
View from above satellite

Ground track
Ground track

The orbit data is extracted from the following two-line orbital elements,

1    22U 59009A   19259.18506488  .00000032  00000-0  25477-4 0  9997
2    22  50.2854 313.4319 0140167 287.1183  71.4455 14.94921984184148
Epoch (UTC): 16 September 2019 04:26:29
Eccentricity: 0.0140167
inclination: 50.2854°
perigee height: 485 km
apogee height: 680 km
right ascension of ascending node: 313.4319°
argument of perigee: 287.1183°
revolutions per day: 14.94921984
mean anomaly at epoch: 71.4455°
orbit number at epoch: 18414

The dashed part of the orbit path shows where the satellite is in the earth's shadow,  

DLR